TimeCST,TemperatureF,Dew PointF,Humidity,Sea Level PressureIn,VisibilityMPH,Wind Direction,Wind SpeedMPH,Gust SpeedMPH,PrecipitationIn,Events,Conditions,WindDirDegrees,DateUTC
12:53 AM,28.9,19.9,69,29.77,10.0,SSE,15.0,-,N/A,,Clear,150,2013-02-18 06:53:00
1:53 AM,28.9,19.9,69,29.73,10.0,SSE,15.0,-,N/A,,Clear,150,2013-02-18 07:53:00
2:53 AM,28.9,21.0,72,29.70,10.0,SSE,12.7,-,N/A,,Clear,150,2013-02-18 08:53:00
3:53 AM,28.9,21.0,72,29.68,10.0,SSE,10.4,-,N/A,,Clear,150,2013-02-18 09:53:00
4:53 AM,28.9,21.9,75,29.66,10.0,SSE,6.9,-,N/A,,Clear,160,2013-02-18 10:53:00
5:53 AM,28.9,21.9,75,29.64,10.0,South,8.1,-,N/A,,Clear,170,2013-02-18 11:53:00
6:53 AM,28.0,21.9,78,29.62,10.0,South,8.1,-,N/A,,Clear,170,2013-02-18 12:53:00
8:53 AM,30.9,24.1,76,29.61,10.0,SSE,8.1,-,N/A,,Clear,160,2013-02-18 14:53:00
9:53 AM,34.0,26.1,73,29.59,10.0,South,9.2,-,N/A,,Clear,170,2013-02-18 15:53:00
10:53 AM,36.0,27.0,70,29.58,10.0,South,9.2,-,N/A,,Scattered Clouds,180,2013-02-18 16:53:00
11:00 AM,35.6,26.6,70,29.55,10.0,South,9.2,-,N/A,,Mostly Cloudy,170,2013-02-18 17:00:00
11:53 AM,37.0,28.0,70,29.56,10.0,South,6.9,-,N/A,,Overcast,190,2013-02-18 17:53:00
12:53 PM,37.9,28.9,70,29.55,10.0,WSW,4.6,-,N/A,,Overcast,240,2013-02-18 18:53:00
1:53 PM,39.0,28.9,67,29.56,10.0,West,5.8,-,N/A,,Overcast,280,2013-02-18 19:53:00
2:53 PM,37.0,30.0,76,29.58,10.0,West,15.0,-,N/A,,Overcast,280,2013-02-18 20:53:00
3:53 PM,33.1,30.0,89,29.59,5.0,WNW,16.1,-,N/A,,Overcast,290,2013-02-18 21:53:00
4:25 PM,30.2,26.6,86,29.56,6.0,West,15.0,-,0.00,Snow,Light Snow,280,2013-02-18 22:25:00
4:40 PM,30.2,24.8,80,29.56,2.5,WNW,18.4,27.6,0.00,Snow,Light Snow,290,2013-02-18 22:40:00
4:49 PM,30.2,24.8,80,29.56,1.5,WNW,15.0,-,0.00,Snow,Light Snow,300,2013-02-18 22:49:00
4:53 PM,30.0,24.1,79,29.60,2.0,WNW,16.1,-,0.00,Snow,Light Snow,300,2013-02-18 22:53:00
5:32 PM,28.4,21.2,74,29.58,5.0,West,12.7,-,0.00,Snow,Light Snow,270,2013-02-18 23:32:00
5:53 PM,27.0,19.9,75,29.64,10.0,WNW,16.1,-,0.00,,Overcast,290,2013-02-18 23:53:00
6:53 PM,23.0,16.0,74,29.67,10.0,West,15.0,-,N/A,,Overcast,280,2013-02-19 00:53:00
7:53 PM,21.0,14.0,74,29.67,10.0,NW,17.3,-,N/A,,Overcast,310,2013-02-19 01:53:00
8:53 PM,19.0,12.9,77,29.68,10.0,NW,18.4,25.3,N/A,,Overcast,310,2013-02-19 02:53:00
9:53 PM,18.0,12.0,78,29.70,10.0,WNW,13.8,-,N/A,,Overcast,290,2013-02-19 03:53:00
10:53 PM,17.1,10.9,77,29.71,6.0,WNW,12.7,25.3,0.00,Snow,Light Snow,290,2013-02-19 04:53:00
11:53 PM,16.0,9.0,74,29.72,9.0,WNW,16.1,-,0.00,,Overcast,300,2013-02-19 05:53:00